Time,TemperatureF,DewpointF,PressureIn,WindDirection,WindDirectionDegrees,WindSpeedMPH,WindSpeedGustMPH,Humidity,HourlyPrecipIn,Conditions,Clouds,dailyrainin,SoftwareType,DateUTC
2015-08-02 00:02:00,71.8,52.7,29.80,SSE,168,0.0,6.0,51,0.00,,,0.00,Wunderground v.1.15,2015-08-02 07:02:00,
2015-08-02 00:07:00,71.9,52.2,29.80,SSE,168,0.0,6.0,50,0.00,,,0.00,Wunderground v.1.15,2015-08-02 07:07:00,
2015-08-02 00:12:00,72.1,52.4,29.80,SSE,168,0.0,6.0,50,0.00,,,0.00,Wunderground v.1.15,2015-08-02 07:12:00,
2015-08-02 00:18:00,72.3,52.1,29.80,SSE,168,0.0,6.0,49,0.00,,,0.00,Wunderground v.1.15,2015-08-02 07:18:00,
2015-08-02 00:23:00,72.4,51.6,29.80,SSE,168,0.0,6.0,48,0.00,,,0.00,Wunderground v.1.15,2015-08-02 07:23:00,
2015-08-02 00:28:00,72.7,51.3,29.79,SSE,168,0.0,6.0,47,0.00,,,0.00,Wunderground v.1.15,2015-08-02 07:28:00,
2015-08-02 00:34:00,72.9,50.9,29.80,SSE,168,0.0,6.0,46,0.00,,,0.00,Wunderground v.1.15,2015-08-02 07:34:00,
2015-08-02 00:44:00,73.2,50.6,29.80,SSE,168,0.0,6.0,45,0.00,,,0.00,Wunderground v.1.15,2015-08-02 07:44:00,
2015-08-02 00:50:00,73.3,50.7,29.80,SSE,168,0.0,6.0,45,0.00,,,0.00,Wunderground v.1.15,2015-08-02 07:50:00,
2015-08-02 00:55:00,73.4,50.8,29.80,West,270,0.0,6.0,45,0.00,,,0.00,Wunderground v.1.15,2015-08-02 07:55:00,
2015-08-02 01:00:00,73.6,50.9,29.80,West,271,1.0,6.0,45,0.00,,,0.00,Wunderground v.1.15,2015-08-02 08:00:00,
2015-08-02 01:05:00,73.7,51.0,29.80,West,271,1.0,6.0,45,0.00,,,0.00,Wunderground v.1.15,2015-08-02 08:05:00,
2015-08-02 01:11:00,73.7,50.4,29.80,West,271,0.0,6.0,44,0.00,,,0.00,Wunderground v.1.15,2015-08-02 08:11:00,
2015-08-02 01:16:00,73.6,50.3,29.80,West,271,1.0,6.0,44,0.00,,,0.00,Wunderground v.1.15,2015-08-02 08:16:00,
2015-08-02 01:21:00,73.6,50.3,29.80,West,271,1.0,6.0,44,0.00,,,0.00,Wunderground v.1.15,2015-08-02 08:21:00,
2015-08-02 01:26:00,73.5,50.2,29.79,West,271,0.0,6.0,44,0.00,,,0.00,Wunderground v.1.15,2015-08-02 08:26:00,
2015-08-02 01:32:00,73.8,49.9,29.79,West,271,0.0,6.0,43,0.00,,,0.00,Wunderground v.1.15,2015-08-02 08:32:00,
2015-08-02 01:37:00,74.1,49.5,29.78,West,271,1.0,6.0,42,0.00,,,0.00,Wunderground v.1.15,2015-08-02 08:37:00,
2015-08-02 01:42:00,74.3,49.1,29.78,West,274,1.0,6.0,41,0.00,,,0.00,Wunderground v.1.15,2015-08-02 08:42:00,
2015-08-02 01:48:00,74.6,48.7,29.79,West,275,1.0,6.0,40,0.00,,,0.00,Wunderground v.1.15,2015-08-02 08:48:00,
2015-08-02 01:53:00,74.6,50.0,29.79,West,275,1.0,6.0,42,0.00,,,0.00,Wunderground v.1.15,2015-08-02 08:53:00,
2015-08-02 01:58:00,74.4,51.1,29.79,West,275,0.0,6.0,44,0.00,,,0.00,Wunderground v.1.15,2015-08-02 08:58:00,
2015-08-02 02:04:00,73.9,51.8,29.79,West,275,0.0,6.0,46,0.00,,,0.00,Wunderground v.1.15,2015-08-02 09:04:00,
2015-08-02 02:09:00,73.2,52.3,29.80,West,275,0.0,6.0,48,0.00,,,0.00,Wunderground v.1.15,2015-08-02 09:09:00,
2015-08-02 02:14:00,72.6,51.8,29.79,West,275,0.0,6.0,48,0.00,,,0.00,Wunderground v.1.15,2015-08-02 09:14:00,
2015-08-02 02:20:00,71.9,52.2,29.79,West,275,0.0,6.0,50,0.00,,,0.00,Wunderground v.1.15,2015-08-02 09:20:00,
2015-08-02 02:25:00,71.4,52.3,29.79,West,275,0.0,6.0,51,0.00,,,0.00,Wunderground v.1.15,2015-08-02 09:25:00,
2015-08-02 02:30:00,71.0,52.0,29.80,West,275,0.0,6.0,51,0.00,,,0.00,Wunderground v.1.15,2015-08-02 09:30:00,
2015-08-02 02:36:00,70.7,52.7,29.80,West,275,0.0,6.0,53,0.00,,,0.00,Wunderground v.1.15,2015-08-02 09:36:00,
2015-08-02 02:41:00,70.3,52.4,29.80,West,275,0.0,6.0,53,0.00,,,0.00,Wunderground v.1.15,2015-08-02 09:41:00,
2015-08-02 02:46:00,69.9,52.5,29.80,West,275,0.0,6.0,54,0.00,,,0.00,Wunderground v.1.15,2015-08-02 09:46:00,
2015-08-02 02:51:00,69.5,52.1,29.79,West,275,0.0,6.0,54,0.00,,,0.00,Wunderground v.1.15,2015-08-02 09:51:00,
2015-08-02 02:57:00,69.3,52.4,29.79,West,275,0.0,6.0,55,0.00,,,0.00,Wunderground v.1.15,2015-08-02 09:57:00,
2015-08-02 03:02:00,69.0,52.6,29.79,West,275,0.0,6.0,56,0.00,,,0.00,Wunderground v.1.15,2015-08-02 10:02:00,
2015-08-02 03:07:00,68.8,52.9,29.79,West,275,0.0,6.0,57,0.00,,,0.00,Wunderground v.1.15,2015-08-02 10:07:00,
2015-08-02 03:12:00,68.7,52.8,29.79,West,275,0.0,6.0,57,0.00,,,0.00,Wunderground v.1.15,2015-08-02 10:12:00,
2015-08-02 03:18:00,68.7,52.8,29.79,West,275,0.0,6.0,57,0.00,,,0.00,Wunderground v.1.15,2015-08-02 10:18:00,
2015-08-02 03:23:00,68.7,52.8,29.79,West,275,0.0,6.0,57,0.00,,,0.00,Wunderground v.1.15,2015-08-02 10:23:00,
2015-08-02 03:28:00,68.7,52.8,29.79,West,275,0.0,6.0,57,0.00,,,0.00,Wunderground v.1.15,2015-08-02 10:28:00,
2015-08-02 03:34:00,68.8,52.9,29.79,West,275,0.0,6.0,57,0.00,,,0.00,Wunderground v.1.15,2015-08-02 10:34:00,
2015-08-02 03:39:00,68.9,52.6,29.79,West,275,0.0,6.0,56,0.00,,,0.00,Wunderground v.1.15,2015-08-02 10:39:00,
2015-08-02 03:44:00,69.0,52.6,29.79,West,275,1.0,6.0,56,0.00,,,0.00,Wunderground v.1.15,2015-08-02 10:44:00,
2015-08-02 03:50:00,69.2,52.3,29.79,West,275,1.0,1.0,55,0.00,,,0.00,Wunderground v.1.15,2015-08-02 10:50:00,
2015-08-02 03:55:00,69.5,52.1,29.78,West,275,0.0,6.0,54,0.00,,,0.00,Wunderground v.1.15,2015-08-02 10:55:00,
2015-08-02 04:00:00,69.9,52.0,29.78,West,275,0.0,6.0,53,0.00,,,0.00,Wunderground v.1.15,2015-08-02 11:00:00,
2015-08-02 04:05:00,70.1,52.2,29.78,West,275,0.0,6.0,53,0.00,,,0.00,Wunderground v.1.15,2015-08-02 11:05:00,
2015-08-02 04:11:00,70.5,52.0,29.78,West,275,0.0,6.0,52,0.00,,,0.00,Wunderground v.1.15,2015-08-02 11:11:00,
2015-08-02 04:16:00,71.1,51.5,29.77,West,275,1.0,6.0,50,0.00,,,0.00,Wunderground v.1.15,2015-08-02 11:16:00,
2015-08-02 04:21:00,71.4,51.2,29.77,West,275,0.0,6.0,49,0.00,,,0.00,Wunderground v.1.15,2015-08-02 11:21:00,
2015-08-02 04:26:00,71.4,50.7,29.78,West,275,0.0,6.0,48,0.00,,,0.00,Wunderground v.1.15,2015-08-02 11:26:00,
2015-08-02 04:32:00,71.5,50.2,29.78,West,275,0.0,6.0,47,0.00,,,0.00,Wunderground v.1.15,2015-08-02 11:32:00,
2015-08-02 04:37:00,71.6,50.3,29.77,West,275,0.0,6.0,47,0.00,,,0.00,Wunderground v.1.15,2015-08-02 11:37:00,
2015-08-02 04:42:00,71.7,49.8,29.77,West,275,0.0,6.0,46,0.00,,,0.00,Wunderground v.1.15,2015-08-02 11:42:00,
2015-08-02 04:49:00,71.7,49.2,29.77,West,275,0.0,6.0,45,0.00,,,0.00,Wunderground v.1.15,2015-08-02 11:49:00,
2015-08-02 04:54:00,71.9,48.8,29.77,West,275,0.0,6.0,44,0.00,,,0.00,Wunderground v.1.15,2015-08-02 11:54:00,
2015-08-02 04:59:00,71.9,48.8,29.77,West,275,0.0,6.0,44,0.00,,,0.00,Wunderground v.1.15,2015-08-02 11:59:00,
2015-08-02 05:05:00,72.1,49.6,29.77,West,275,0.0,6.0,45,0.00,,,0.00,Wunderground v.1.15,2015-08-02 12:05:00,
2015-08-02 05:10:00,72.1,49.0,29.77,West,275,0.0,6.0,44,0.00,,,0.00,Wunderground v.1.15,2015-08-02 12:10:00,
2015-08-02 05:15:00,72.2,49.1,29.77,West,275,0.0,6.0,44,0.00,,,0.00,Wunderground v.1.15,2015-08-02 12:15:00,
2015-08-02 05:20:00,72.4,48.6,29.77,West,275,0.0,6.0,43,0.00,,,0.00,Wunderground v.1.15,2015-08-02 12:20:00,
2015-08-02 05:26:00,72.5,48.7,29.77,West,275,0.0,6.0,43,0.00,,,0.00,Wunderground v.1.15,2015-08-02 12:26:00,
2015-08-02 05:31:00,72.6,49.4,29.77,West,275,0.0,6.0,44,0.00,,,0.00,Wunderground v.1.15,2015-08-02 12:31:00,
2015-08-02 05:37:00,72.5,48.7,29.77,West,275,0.0,6.0,43,0.00,,,0.00,Wunderground v.1.15,2015-08-02 12:37:00,
2015-08-02 05:42:00,72.5,48.7,29.77,West,275,0.0,6.0,43,0.00,,,0.00,Wunderground v.1.15,2015-08-02 12:42:00,
2015-08-02 05:48:00,72.5,48.7,29.77,West,275,0.0,6.0,43,0.00,,,0.00,Wunderground v.1.15,2015-08-02 12:48:00,
2015-08-02 05:53:00,72.7,48.3,29.77,West,275,0.0,6.0,42,0.00,,,0.00,Wunderground v.1.15,2015-08-02 12:53:00,
2015-08-02 05:59:00,72.8,48.4,29.77,West,275,1.0,6.0,42,0.00,,,0.00,Wunderground v.1.15,2015-08-02 12:59:00,
2015-08-02 06:04:00,72.9,48.5,29.77,West,275,1.0,6.0,42,0.00,,,0.00,Wunderground v.1.15,2015-08-02 13:04:00,
2015-08-02 06:09:00,73.0,48.5,29.77,West,275,0.0,6.0,42,0.00,,,0.00,Wunderground v.1.15,2015-08-02 13:09:00,
2015-08-02 06:14:00,73.2,48.7,29.77,West,275,0.0,6.0,42,0.00,,,0.00,Wunderground v.1.15,2015-08-02 13:14:00,
2015-08-02 06:20:00,73.2,48.7,29.77,West,275,0.0,6.0,42,0.00,,,0.00,Wunderground v.1.15,2015-08-02 13:20:00,
2015-08-02 06:25:00,73.3,49.4,29.77,West,275,0.0,6.0,43,0.00,,,0.00,Wunderground v.1.15,2015-08-02 13:25:00,
2015-08-02 06:30:00,73.3,48.8,29.77,West,275,0.0,6.0,42,0.00,,,0.00,Wunderground v.1.15,2015-08-02 13:30:00,
2015-08-02 06:36:00,73.4,48.9,29.77,West,275,0.0,6.0,42,0.00,,,0.00,Wunderground v.1.15,2015-08-02 13:36:00,
2015-08-02 06:41:00,73.4,48.9,29.77,West,275,0.0,6.0,42,0.00,,,0.00,Wunderground v.1.15,2015-08-02 13:41:00,
2015-08-02 06:46:00,73.4,49.5,29.77,West,275,0.0,6.0,43,0.00,,,0.00,Wunderground v.1.15,2015-08-02 13:46:00,
2015-08-02 06:52:00,73.3,50.1,29.77,West,275,0.0,6.0,44,0.00,,,0.00,Wunderground v.1.15,2015-08-02 13:52:00,
2015-08-02 06:57:00,73.1,49.3,29.78,West,275,0.0,6.0,43,0.00,,,0.00,Wunderground v.1.15,2015-08-02 13:57:00,
2015-08-02 07:02:00,73.1,48.6,29.78,West,275,0.0,6.0,42,0.00,,,0.00,Wunderground v.1.15,2015-08-02 14:02:00,
2015-08-02 07:07:00,73.4,49.5,29.78,West,275,0.0,6.0,43,0.00,,,0.00,Wunderground v.1.15,2015-08-02 14:07:00,
2015-08-02 07:13:00,73.6,49.7,29.78,West,275,0.0,6.0,43,0.00,,,0.00,Wunderground v.1.15,2015-08-02 14:13:00,
2015-08-02 07:18:00,73.7,49.8,29.78,West,275,0.0,6.0,43,0.00,,,0.00,Wunderground v.1.15,2015-08-02 14:18:00,
2015-08-02 07:23:00,73.8,51.1,29.78,West,275,0.0,6.0,45,0.00,,,0.00,Wunderground v.1.15,2015-08-02 14:23:00,
2015-08-02 07:28:00,73.8,51.1,29.78,West,275,0.0,6.0,45,0.00,,,0.00,Wunderground v.1.15,2015-08-02 14:28:00,
2015-08-02 07:34:00,73.8,50.5,29.79,West,275,0.0,6.0,44,0.00,,,0.00,Wunderground v.1.15,2015-08-02 14:34:00,
2015-08-02 07:39:00,73.8,51.1,29.79,West,275,0.0,6.0,45,0.00,,,0.00,Wunderground v.1.15,2015-08-02 14:39:00,
2015-08-02 07:45:00,73.7,51.0,29.79,West,275,0.0,6.0,45,0.00,,,0.00,Wunderground v.1.15,2015-08-02 14:45:00,
2015-08-02 07:50:00,73.8,51.7,29.79,West,275,0.0,6.0,46,0.00,,,0.00,Wunderground v.1.15,2015-08-02 14:50:00,
2015-08-02 07:55:00,73.7,51.0,29.79,West,275,0.0,6.0,45,0.00,,,0.00,Wunderground v.1.15,2015-08-02 14:55:00,
2015-08-02 08:00:00,73.6,51.5,29.79,West,275,0.0,6.0,46,0.00,,,0.00,Wunderground v.1.15,2015-08-02 15:00:00,
2015-08-02 08:06:00,73.6,51.5,29.79,West,275,0.0,6.0,46,0.00,,,0.00,Wunderground v.1.15,2015-08-02 15:06:00,
2015-08-02 08:11:00,73.5,52.6,29.79,West,275,0.0,6.0,48,0.00,,,0.00,Wunderground v.1.15,2015-08-02 15:11:00,
2015-08-02 08:16:00,73.5,52.6,29.79,West,275,0.0,6.0,48,0.00,,,0.00,Wunderground v.1.15,2015-08-02 15:16:00,
2015-08-02 08:22:00,73.4,52.5,29.79,West,275,0.0,6.0,48,0.00,,,0.00,Wunderground v.1.15,2015-08-02 15:22:00,
2015-08-02 08:27:00,73.4,53.1,29.79,West,275,0.0,6.0,49,0.00,,,0.00,Wunderground v.1.15,2015-08-02 15:27:00,
2015-08-02 08:32:00,73.4,53.1,29.79,West,275,0.0,6.0,49,0.00,,,0.00,Wunderground v.1.15,2015-08-02 15:32:00,
2015-08-02 08:43:00,73.3,52.4,29.80,West,275,0.0,6.0,48,0.00,,,0.00,Wunderground v.1.15,2015-08-02 15:43:00,
2015-08-02 08:53:00,73.3,52.4,29.80,West,275,0.0,6.0,48,0.00,,,0.00,Wunderground v.1.15,2015-08-02 15:53:00,
2015-08-02 08:59:00,73.2,52.9,29.79,West,275,0.0,6.0,49,0.00,,,0.00,Wunderground v.1.15,2015-08-02 15:59:00,
2015-08-02 09:04:00,73.2,52.9,29.80,West,275,0.0,6.0,49,0.00,,,0.00,Wunderground v.1.15,2015-08-02 16:04:00,
2015-08-02 09:09:00,73.2,52.3,29.79,West,275,0.0,6.0,48,0.00,,,0.00,Wunderground v.1.15,2015-08-02 16:09:00,
2015-08-02 09:14:00,73.2,52.9,29.80,West,275,0.0,6.0,49,0.00,,,0.00,Wunderground v.1.15,2015-08-02 16:14:00,
2015-08-02 09:20:00,73.4,53.1,29.80,West,275,0.0,6.0,49,0.00,,,0.00,Wunderground v.1.15,2015-08-02 16:20:00,
2015-08-02 09:25:00,73.5,53.2,29.80,West,275,0.0,6.0,49,0.00,,,0.00,Wunderground v.1.15,2015-08-02 16:25:00,
2015-08-02 09:31:00,73.7,53.3,29.80,West,275,0.0,6.0,49,0.00,,,0.00,Wunderground v.1.15,2015-08-02 16:31:00,
2015-08-02 09:36:00,73.7,54.4,29.80,West,275,0.0,6.0,51,0.00,,,0.00,Wunderground v.1.15,2015-08-02 16:36:00,
2015-08-02 09:41:00,73.9,55.2,29.80,West,275,0.0,6.0,52,0.00,,,0.00,Wunderground v.1.15,2015-08-02 16:41:00,
2015-08-02 09:46:00,73.9,55.7,29.80,West,275,0.0,6.0,53,0.00,,,0.00,Wunderground v.1.15,2015-08-02 16:46:00,
2015-08-02 09:52:00,74.0,56.8,29.80,West,275,0.0,6.0,55,0.00,,,0.00,Wunderground v.1.15,2015-08-02 16:52:00,
2015-08-02 09:57:00,74.0,56.3,29.80,West,275,0.0,6.0,54,0.00,,,0.00,Wunderground v.1.15,2015-08-02 16:57:00,
2015-08-02 10:02:00,74.1,57.4,29.80,West,275,0.0,6.0,56,0.00,,,0.00,Wunderground v.1.15,2015-08-02 17:02:00,
2015-08-02 10:08:00,74.0,57.8,29.80,West,275,0.0,6.0,57,0.00,,,0.00,Wunderground v.1.15,2015-08-02 17:08:00,
2015-08-02 10:13:00,73.9,57.7,29.80,West,275,0.0,6.0,57,0.00,,,0.00,Wunderground v.1.15,2015-08-02 17:13:00,
2015-08-02 10:18:00,73.8,58.6,29.80,West,275,0.0,6.0,59,0.00,,,0.00,Wunderground v.1.15,2015-08-02 17:18:00,
2015-08-02 10:24:00,73.9,58.7,29.81,West,275,0.0,6.0,59,0.00,,,0.00,Wunderground v.1.15,2015-08-02 17:24:00,
2015-08-02 10:29:00,74.3,57.6,29.81,West,275,0.0,6.0,56,0.00,,,0.00,Wunderground v.1.15,2015-08-02 17:29:00,
2015-08-02 10:34:00,74.8,55.5,29.81,West,275,0.0,6.0,51,0.00,,,0.00,Wunderground v.1.15,2015-08-02 17:34:00,
2015-08-02 10:39:00,75.6,56.2,29.81,West,274,0.0,6.0,51,0.00,,,0.00,Wunderground v.1.15,2015-08-02 17:39:00,
2015-08-02 10:45:00,76.9,54.5,29.80,WSW,247,1.0,6.0,46,0.00,,,0.00,Wunderground v.1.15,2015-08-02 17:45:00,
2015-08-02 10:50:00,78.1,55.0,29.81,South,179,1.0,6.0,45,0.00,,,0.00,Wunderground v.1.15,2015-08-02 17:50:00,
2015-08-02 10:55:00,78.7,55.0,29.81,South,176,1.0,6.0,44,0.00,,,0.00,Wunderground v.1.15,2015-08-02 17:55:00,
2015-08-02 11:00:00,79.2,54.1,29.81,South,176,1.0,6.0,42,0.00,,,0.00,Wunderground v.1.15,2015-08-02 18:00:00,
2015-08-02 11:06:00,79.5,54.4,29.81,South,176,1.0,6.0,42,0.00,,,0.00,Wunderground v.1.15,2015-08-02 18:06:00,
2015-08-02 11:11:00,80.1,53.6,29.81,SSE,165,1.0,6.0,40,0.00,,,0.00,Wunderground v.1.15,2015-08-02 18:11:00,
2015-08-02 11:16:00,81.2,53.9,29.81,SSE,154,1.0,6.0,39,0.00,,,0.00,Wunderground v.1.15,2015-08-02 18:16:00,
2015-08-02 11:22:00,82.1,54.0,29.80,SSE,151,1.0,6.0,38,0.00,,,0.00,Wunderground v.1.15,2015-08-02 18:22:00,
2015-08-02 11:27:00,82.6,55.1,29.80,SSE,155,1.0,6.0,39,0.00,,,0.00,Wunderground v.1.15,2015-08-02 18:27:00,
2015-08-02 11:32:00,83.0,54.8,29.80,SSE,153,1.0,6.0,38,0.00,,,0.00,Wunderground v.1.15,2015-08-02 18:32:00,
2015-08-02 11:38:00,83.0,54.8,29.80,SSE,153,1.0,6.0,38,0.00,,,0.00,Wunderground v.1.15,2015-08-02 18:38:00,
2015-08-02 11:43:00,82.9,54.7,29.80,SSE,153,1.0,6.0,38,0.00,,,0.00,Wunderground v.1.15,2015-08-02 18:43:00,
2015-08-02 11:48:00,82.8,54.6,29.81,NW,322,1.0,6.0,38,0.00,,,0.00,Wunderground v.1.15,2015-08-02 18:48:00,
2015-08-02 11:53:00,83.0,54.8,29.81,NW,321,1.0,6.0,38,0.00,,,0.00,Wunderground v.1.15,2015-08-02 18:53:00,
2015-08-02 11:59:00,83.2,54.2,29.81,NW,321,0.0,6.0,37,0.00,,,0.00,Wunderground v.1.15,2015-08-02 18:59:00,
2015-08-02 12:04:00,83.3,53.6,29.81,NNW,331,0.0,6.0,36,0.00,,,0.00,Wunderground v.1.15,2015-08-02 19:04:00,
2015-08-02 12:09:00,83.3,53.6,29.81,NNW,331,0.0,6.0,36,0.00,,,0.00,Wunderground v.1.15,2015-08-02 19:09:00,
2015-08-02 12:15:00,83.4,53.6,29.80,NNW,331,0.0,6.0,36,0.00,,,0.00,Wunderground v.1.15,2015-08-02 19:15:00,
2015-08-02 12:20:00,83.3,52.8,29.80,NNW,329,1.0,1.0,35,0.00,,,0.00,Wunderground v.1.15,2015-08-02 19:20:00,
2015-08-02 12:25:00,83.1,54.1,29.80,ENE,65,1.0,6.0,37,0.00,,,0.00,Wunderground v.1.15,2015-08-02 19:25:00,
2015-08-02 12:30:00,83.4,54.4,29.80,SSE,163,1.0,6.0,37,0.00,,,0.00,Wunderground v.1.15,2015-08-02 19:30:00,
2015-08-02 12:36:00,83.3,53.6,29.80,SE,134,3.0,6.0,36,0.00,,,0.00,Wunderground v.1.15,2015-08-02 19:36:00,
2015-08-02 12:41:00,83.0,52.5,29.80,SSE,156,2.0,6.0,35,0.00,,,0.00,Wunderground v.1.15,2015-08-02 19:41:00,
2015-08-02 12:46:00,82.9,54.0,29.80,SSE,158,1.0,6.0,37,0.00,,,0.00,Wunderground v.1.15,2015-08-02 19:46:00,
2015-08-02 12:52:00,82.9,54.7,29.81,SSE,158,1.0,6.0,38,0.00,,,0.00,Wunderground v.1.15,2015-08-02 19:52:00,
2015-08-02 12:57:00,83.1,54.1,29.80,SE,136,0.0,6.0,37,0.00,,,0.00,Wunderground v.1.15,2015-08-02 19:57:00,
2015-08-02 13:02:00,83.3,55.8,29.81,SE,136,0.0,6.0,39,0.00,,,0.00,Wunderground v.1.15,2015-08-02 20:02:00,
2015-08-02 13:08:00,83.2,55.0,29.81,SE,136,0.0,6.0,38,0.00,,,0.00,Wunderground v.1.15,2015-08-02 20:08:00,
2015-08-02 13:13:00,83.0,54.8,29.81,SE,132,1.0,6.0,38,0.00,,,0.00,Wunderground v.1.15,2015-08-02 20:13:00,
2015-08-02 13:18:00,83.2,55.0,29.80,SE,132,1.0,6.0,38,0.00,,,0.00,Wunderground v.1.15,2015-08-02 20:18:00,
2015-08-02 13:23:00,83.2,55.0,29.80,SE,130,1.0,6.0,38,0.00,,,0.00,Wunderground v.1.15,2015-08-02 20:23:00,
2015-08-02 13:29:00,83.2,55.0,29.80,SE,128,1.0,6.0,38,0.00,,,0.00,Wunderground v.1.15,2015-08-02 20:29:00,
2015-08-02 13:34:00,83.2,55.0,29.80,SE,128,1.0,6.0,38,0.00,,,0.00,Wunderground v.1.15,2015-08-02 20:34:00,
2015-08-02 13:39:00,82.9,53.2,29.80,SE,136,2.0,8.0,36,0.00,,,0.00,Wunderground v.1.15,2015-08-02 20:39:00,
2015-08-02 13:45:00,82.7,53.0,29.80,South,169,2.0,6.0,36,0.00,,,0.00,Wunderground v.1.15,2015-08-02 20:45:00,
2015-08-02 13:50:00,82.8,53.1,29.80,ESE,123,2.0,2.0,36,0.00,,,0.00,Wunderground v.1.15,2015-08-02 20:50:00,
2015-08-02 13:55:00,82.9,52.4,29.80,SSE,152,2.0,6.0,35,0.00,,,0.00,Wunderground v.1.15,2015-08-02 20:55:00,
2015-08-02 14:01:00,83.4,52.9,29.80,East,101,2.0,6.0,35,0.00,,,0.00,Wunderground v.1.15,2015-08-02 21:01:00,
2015-08-02 14:07:00,83.8,51.6,29.79,ESE,119,2.0,6.0,33,0.00,,,0.00,Wunderground v.1.15,2015-08-02 21:07:00,
2015-08-02 14:12:00,83.8,50.8,29.79,East,92,3.0,6.0,32,0.00,,,0.00,Wunderground v.1.15,2015-08-02 21:12:00,
2015-08-02 14:17:00,83.0,50.1,29.79,ESE,109,3.0,6.0,32,0.00,,,0.00,Wunderground v.1.15,2015-08-02 21:17:00,
2015-08-02 14:23:00,83.1,51.0,29.79,SE,129,2.0,6.0,33,0.00,,,0.00,Wunderground v.1.15,2015-08-02 21:23:00,
2015-08-02 14:28:00,83.7,49.9,29.79,NE,45,3.0,6.0,31,0.00,,,0.00,Wunderground v.1.15,2015-08-02 21:28:00,
2015-08-02 14:33:00,83.7,49.9,29.79,ESE,102,4.0,6.0,31,0.00,,,0.00,Wunderground v.1.15,2015-08-02 21:33:00,
2015-08-02 14:39:00,83.9,51.7,29.78,SSE,152,4.0,6.0,33,0.00,,,0.00,Wunderground v.1.15,2015-08-02 21:39:00,
2015-08-02 14:44:00,84.8,51.7,29.78,South,173,3.0,6.0,32,0.00,,,0.00,Wunderground v.1.15,2015-08-02 21:44:00,
2015-08-02 14:49:00,85.3,51.2,29.79,SE,144,3.0,6.0,31,0.00,,,0.00,Wunderground v.1.15,2015-08-02 21:49:00,
2015-08-02 14:54:00,85.6,50.6,29.79,SE,136,2.0,6.0,30,0.00,,,0.00,Wunderground v.1.15,2015-08-02 21:54:00,
2015-08-02 15:00:00,85.3,50.4,29.78,SE,135,1.0,1.0,30,0.00,,,0.00,Wunderground v.1.15,2015-08-02 22:00:00,
2015-08-02 15:05:00,85.4,50.4,29.78,SSE,165,1.0,8.0,30,0.00,,,0.00,Wunderground v.1.15,2015-08-02 22:05:00,
2015-08-02 15:11:00,85.2,50.3,29.78,SE,145,3.0,6.0,30,0.00,,,0.00,Wunderground v.1.15,2015-08-02 22:11:00,
2015-08-02 15:16:00,85.3,50.4,29.78,ESE,111,2.0,6.0,30,0.00,,,0.00,Wunderground v.1.15,2015-08-02 22:16:00,
2015-08-02 15:21:00,84.9,50.0,29.78,East,101,2.0,6.0,30,0.00,,,0.00,Wunderground v.1.15,2015-08-02 22:21:00,
2015-08-02 15:26:00,85.1,50.2,29.78,SE,130,3.0,6.0,30,0.00,,,0.00,Wunderground v.1.15,2015-08-02 22:26:00,
2015-08-02 15:32:00,84.9,50.0,29.77,SSW,192,3.0,6.0,30,0.00,,,0.00,Wunderground v.1.15,2015-08-02 22:32:00,
2015-08-02 15:38:00,85.5,50.5,29.78,East,88,2.0,6.0,30,0.00,,,0.00,Wunderground v.1.15,2015-08-02 22:38:00,
2015-08-02 15:43:00,85.8,49.9,29.77,ENE,71,2.0,6.0,29,0.00,,,0.00,Wunderground v.1.15,2015-08-02 22:43:00,
2015-08-02 15:49:00,86.1,51.0,29.77,East,91,2.0,6.0,30,0.00,,,0.00,Wunderground v.1.15,2015-08-02 22:49:00,
2015-08-02 15:54:00,86.4,51.3,29.77,SE,129,2.0,6.0,30,0.00,,,0.00,Wunderground v.1.15,2015-08-02 22:54:00,
2015-08-02 15:59:00,86.6,50.6,29.77,East,89,2.0,6.0,29,0.00,,,0.00,Wunderground v.1.15,2015-08-02 22:59:00,
2015-08-02 16:05:00,87.0,50.9,29.77,East,91,1.0,6.0,29,0.00,,,0.00,Wunderground v.1.15,2015-08-02 23:05:00,
2015-08-02 16:10:00,87.4,51.2,29.77,South,173,2.0,6.0,29,0.00,,,0.00,Wunderground v.1.15,2015-08-02 23:10:00,
2015-08-02 16:15:00,87.1,50.0,29.77,ESE,119,2.0,6.0,28,0.00,,,0.00,Wunderground v.1.15,2015-08-02 23:15:00,
2015-08-02 16:20:00,86.3,50.3,29.77,South,173,3.0,6.0,29,0.00,,,0.00,Wunderground v.1.15,2015-08-02 23:20:00,
2015-08-02 16:26:00,85.7,49.8,29.77,SE,145,3.0,6.0,29,0.00,,,0.00,Wunderground v.1.15,2015-08-02 23:26:00,
2015-08-02 16:31:00,85.6,51.5,29.76,SE,143,1.0,6.0,31,0.00,,,0.00,Wunderground v.1.15,2015-08-02 23:31:00,
2015-08-02 16:36:00,85.6,50.6,29.76,South,175,1.0,6.0,30,0.00,,,0.00,Wunderground v.1.15,2015-08-02 23:36:00,
2015-08-02 16:42:00,85.5,51.4,29.76,South,185,2.0,6.0,31,0.00,,,0.00,Wunderground v.1.15,2015-08-02 23:42:00,
2015-08-02 16:47:00,85.8,50.8,29.76,SSE,155,1.0,6.0,30,0.00,,,0.00,Wunderground v.1.15,2015-08-02 23:47:00,
2015-08-02 16:52:00,85.6,50.6,29.76,SE,134,2.0,6.0,30,0.00,,,0.00,Wunderground v.1.15,2015-08-02 23:52:00,
2015-08-02 16:58:00,85.7,50.7,29.76,SSE,151,1.0,6.0,30,0.00,,,0.00,Wunderground v.1.15,2015-08-02 23:58:00,
2015-08-02 17:04:00,85.7,51.6,29.76,SSE,152,1.0,6.0,31,0.00,,,0.00,Wunderground v.1.15,2015-08-03 00:04:00,
2015-08-02 17:09:00,85.7,51.6,29.76,ESE,121,1.0,6.0,31,0.00,,,0.00,Wunderground v.1.15,2015-08-03 00:09:00,
2015-08-02 17:14:00,85.5,51.4,29.76,ESE,119,1.0,6.0,31,0.00,,,0.00,Wunderground v.1.15,2015-08-03 00:14:00,
2015-08-02 17:20:00,85.1,51.9,29.76,SE,126,1.0,1.0,32,0.00,,,0.00,Wunderground v.1.15,2015-08-03 00:20:00,
2015-08-02 17:25:00,84.9,51.7,29.76,SSW,192,1.0,6.0,32,0.00,,,0.00,Wunderground v.1.15,2015-08-03 00:25:00,
2015-08-02 17:30:00,84.4,53.8,29.76,East,85,1.0,6.0,35,0.00,,,0.00,Wunderground v.1.15,2015-08-03 00:30:00,
2015-08-02 17:36:00,84.1,51.9,29.76,South,171,1.0,6.0,33,0.00,,,0.00,Wunderground v.1.15,2015-08-03 00:36:00,
2015-08-02 17:41:00,83.7,51.5,29.75,ESE,119,1.0,6.0,33,0.00,,,0.00,Wunderground v.1.15,2015-08-03 00:41:00,
2015-08-02 17:46:00,83.3,52.8,29.76,ESE,119,1.0,6.0,35,0.00,,,0.00,Wunderground v.1.15,2015-08-03 00:46:00,
2015-08-02 17:51:00,82.9,53.2,29.76,ESE,119,0.0,6.0,36,0.00,,,0.00,Wunderground v.1.15,2015-08-03 00:51:00,
2015-08-02 17:57:00,82.4,53.5,29.76,ESE,119,0.0,6.0,37,0.00,,,0.00,Wunderground v.1.15,2015-08-03 00:57:00,
2015-08-02 18:02:00,82.1,50.9,29.76,SE,144,1.0,6.0,34,0.00,,,0.00,Wunderground v.1.15,2015-08-03 01:02:00,
2015-08-02 18:07:00,81.8,53.0,29.75,SE,142,1.0,6.0,37,0.00,,,0.00,Wunderground v.1.15,2015-08-03 01:07:00,
2015-08-02 18:12:00,81.4,52.6,29.75,SE,142,1.0,6.0,37,0.00,,,0.00,Wunderground v.1.15,2015-08-03 01:12:00,
2015-08-02 18:18:00,81.0,52.3,29.75,SE,137,1.0,6.0,37,0.00,,,0.00,Wunderground v.1.15,2015-08-03 01:18:00,
2015-08-02 18:23:00,80.6,51.2,29.75,SE,135,1.0,6.0,36,0.00,,,0.00,Wunderground v.1.15,2015-08-03 01:23:00,
2015-08-02 18:28:00,80.4,51.7,29.75,SE,135,0.0,6.0,37,0.00,,,0.00,Wunderground v.1.15,2015-08-03 01:28:00,
2015-08-02 18:34:00,80.2,52.3,29.76,SE,135,0.0,6.0,38,0.00,,,0.00,Wunderground v.1.15,2015-08-03 01:34:00,
2015-08-02 18:39:00,79.9,52.7,29.76,SE,135,0.0,6.0,39,0.00,,,0.00,Wunderground v.1.15,2015-08-03 01:39:00,
2015-08-02 18:44:00,79.5,52.4,29.76,SE,135,0.0,6.0,39,0.00,,,0.00,Wunderground v.1.15,2015-08-03 01:44:00,
2015-08-02 18:50:00,79.1,52.7,29.76,SE,135,0.0,6.0,40,0.00,,,0.00,Wunderground v.1.15,2015-08-03 01:50:00,
2015-08-02 18:55:00,78.8,52.4,29.76,SE,135,0.0,6.0,40,0.00,,,0.00,Wunderground v.1.15,2015-08-03 01:55:00,
2015-08-02 19:00:00,78.5,52.2,29.76,SE,135,0.0,6.0,40,0.00,,,0.00,Wunderground v.1.15,2015-08-03 02:00:00,
2015-08-02 19:06:00,78.2,52.6,29.76,SE,135,0.0,6.0,41,0.00,,,0.00,Wunderground v.1.15,2015-08-03 02:06:00,
2015-08-02 19:11:00,77.9,52.3,29.76,SE,135,0.0,6.0,41,0.00,,,0.00,Wunderground v.1.15,2015-08-03 02:11:00,
2015-08-02 19:16:00,77.6,52.0,29.76,SE,135,0.0,6.0,41,0.00,,,0.00,Wunderground v.1.15,2015-08-03 02:16:00,
2015-08-02 19:22:00,77.3,51.8,29.76,SE,135,0.0,6.0,41,0.00,,,0.00,Wunderground v.1.15,2015-08-03 02:22:00,
2015-08-02 19:27:00,77.0,52.1,29.76,SE,135,0.0,6.0,42,0.00,,,0.00,Wunderground v.1.15,2015-08-03 02:27:00,
2015-08-02 19:32:00,76.7,51.9,29.76,SE,135,0.0,6.0,42,0.00,,,0.00,Wunderground v.1.15,2015-08-03 02:32:00,
2015-08-02 19:37:00,76.4,52.2,29.76,SE,135,0.0,6.0,43,0.00,,,0.00,Wunderground v.1.15,2015-08-03 02:37:00,
2015-08-02 19:43:00,76.1,52.0,29.76,SE,135,0.0,6.0,43,0.00,,,0.00,Wunderground v.1.15,2015-08-03 02:43:00,
2015-08-02 19:48:00,76.0,51.9,29.76,SE,135,0.0,6.0,43,0.00,,,0.00,Wunderground v.1.15,2015-08-03 02:48:00,
2015-08-02 19:53:00,75.8,52.3,29.76,SE,135,0.0,6.0,44,0.00,,,0.00,Wunderground v.1.15,2015-08-03 02:53:00,
2015-08-02 19:59:00,75.6,52.8,29.76,SE,135,0.0,6.0,45,0.00,,,0.00,Wunderground v.1.15,2015-08-03 02:59:00,
2015-08-02 20:04:00,75.4,53.2,29.76,SE,135,0.0,6.0,46,0.00,,,0.00,Wunderground v.1.15,2015-08-03 03:04:00,
2015-08-02 20:09:00,75.1,52.3,29.76,SE,135,0.0,6.0,45,0.00,,,0.00,Wunderground v.1.15,2015-08-03 03:09:00,
2015-08-02 20:15:00,74.9,52.7,29.77,SE,135,0.0,6.0,46,0.00,,,0.00,Wunderground v.1.15,2015-08-03 03:15:00,